Time,TemperatureF,DewpointF,PressureIn,WindDirection,WindDirectionDegrees,WindSpeedMPH,WindSpeedGustMPH,Humidity,HourlyPrecipIn,Conditions,Clouds,dailyrainin,SoftwareType,DateUTC
2013-03-31 00:00:00,63.5,57.6,30.19,WSW,256,0.0,0.0,81,0.00,CLR,OVC,0.00,WeatherDisplay:10.37,2013-03-31 04:00:00,
2013-03-31 00:05:00,63.3,57.4,30.19,WSW,256,0.0,0.0,81,0.00,CLR,OVC,0.00,WeatherDisplay:10.37,2013-03-31 04:05:00,
2013-03-31 00:10:00,63.3,57.7,30.18,WSW,256,0.0,0.0,82,0.00,CLR,OVC,0.00,WeatherDisplay:10.37,2013-03-31 04:10:00,
2013-03-31 00:15:00,63.0,57.4,30.18,WSW,256,0.0,0.0,82,0.00,CLR,OVC,0.00,WeatherDisplay:10.37,2013-03-31 04:15:00,
2013-03-31 00:20:00,62.7,57.1,30.18,WSW,256,0.0,0.0,82,0.00,CLR,OVC,0.00,WeatherDisplay:10.37,2013-03-31 04:20:00,
2013-03-31 00:25:00,62.6,57.0,30.18,WSW,256,0.0,0.0,82,0.00,CLR,OVC,0.00,WeatherDisplay:10.37,2013-03-31 04:25:00,
2013-03-31 00:30:00,62.4,56.8,30.18,East,86,0.2,2.3,82,0.00,CLR,OVC,0.00,WeatherDisplay:10.37,2013-03-31 04:30:00,
2013-03-31 00:36:00,62.4,57.2,30.19,ESE,114,0.9,1.1,83,0.00,CLR,OVC,0.00,WeatherDisplay:10.37,2013-03-31 04:36:00,
2013-03-31 00:41:00,62.3,57.1,30.18,East,82,0.0,0.0,83,0.00,CLR,OVC,0.00,WeatherDisplay:10.37,2013-03-31 04:41:00,
2013-03-31 00:46:00,62.2,57.3,30.18,East,82,0.0,0.0,84,0.00,CLR,OVC,0.00,WeatherDisplay:10.37,2013-03-31 04:46:00,
2013-03-31 00:51:00,62.2,57.3,30.18,East,82,0.0,0.0,84,0.00,CLR,OVC,0.00,WeatherDisplay:10.37,2013-03-31 04:51:00,
2013-03-31 00:56:00,62.2,57.3,30.18,East,82,0.0,0.0,84,0.00,CLR,OVC,0.00,WeatherDisplay:10.37,2013-03-31 04:56:00,
2013-03-31 01:01:00,62.2,57.3,30.18,East,82,0.0,0.0,84,0.00,CLR,OVC,0.00,WeatherDisplay:10.37,2013-03-31 05:01:00,
2013-03-31 01:06:00,62.1,57.5,30.18,East,82,0.0,0.0,85,0.00,CLR,OVC,0.00,WeatherDisplay:10.37,2013-03-31 05:06:00,
2013-03-31 01:11:00,62.0,57.4,30.18,East,82,0.0,0.0,85,0.00,CLR,OVC,0.00,WeatherDisplay:10.37,2013-03-31 05:11:00,
2013-03-31 01:16:00,61.9,57.0,30.18,East,82,0.0,0.0,84,0.00,CLR,OVC,0.00,WeatherDisplay:10.37,2013-03-31 05:16:00,
2013-03-31 01:21:00,62.0,57.1,30.17,East,82,0.0,0.0,84,0.00,CLR,OVC,0.00,WeatherDisplay:10.37,2013-03-31 05:21:00,
2013-03-31 01:26:00,62.0,57.1,30.17,East,82,0.0,0.0,84,0.00,CLR,OVC,0.00,WeatherDisplay:10.37,2013-03-31 05:26:00,
2013-03-31 01:31:00,61.8,56.9,30.17,East,82,0.0,0.0,84,0.00,CLR,OVC,0.00,WeatherDisplay:10.37,2013-03-31 05:31:00,
2013-03-31 01:36:00,61.7,57.1,30.17,East,82,0.0,0.0,85,0.00,CLR,OVC,0.00,WeatherDisplay:10.37,2013-03-31 05:36:00,
2013-03-31 01:41:00,61.7,56.8,30.17,SSE,148,0.7,2.7,84,0.00,CLR,OVC,0.00,WeatherDisplay:10.37,2013-03-31 05:41:00,
2013-03-31 01:46:00,61.4,56.5,30.17,SE,131,3.9,5.8,84,0.00,CLR,OVC,0.00,WeatherDisplay:10.37,2013-03-31 05:46:00,
2013-03-31 01:51:00,61.3,56.8,30.17,SSE,160,4.7,5.8,85,0.00,CLR,OVC,0.00,WeatherDisplay:10.37,2013-03-31 05:51:00,
2013-03-31 01:56:00,61.2,56.7,30.17,SSE,157,5.0,6.9,85,0.00,CLR,OVC,0.00,WeatherDisplay:10.37,2013-03-31 05:56:00,
2013-03-31 02:01:00,61.2,57.0,30.17,SSE,158,4.9,5.8,86,0.00,CLR,OVC,0.00,WeatherDisplay:10.37,2013-03-31 06:01:00,
2013-03-31 02:06:00,61.2,57.0,30.17,SSE,162,5.0,5.8,86,0.00,CLR,OVC,0.00,WeatherDisplay:10.37,2013-03-31 06:06:00,
2013-03-31 02:11:00,61.2,57.0,30.17,South,172,3.5,4.2,86,0.00,CLR,OVC,0.00,WeatherDisplay:10.37,2013-03-31 06:11:00,
2013-03-31 02:16:00,61.4,57.2,30.17,SSE,150,3.1,4.6,86,0.00,CLR,OVC,0.00,WeatherDisplay:10.37,2013-03-31 06:16:00,
2013-03-31 02:21:00,61.5,57.3,30.17,SSE,160,3.6,4.6,86,0.00,CLR,OVC,0.00,WeatherDisplay:10.37,2013-03-31 06:21:00,
2013-03-31 02:26:00,61.5,57.3,30.17,SSE,162,4.4,5.8,86,0.00,CLR,OVC,0.00,WeatherDisplay:10.37,2013-03-31 06:26:00,
2013-03-31 02:31:00,61.4,57.5,30.17,South,172,5.1,6.9,87,0.00,CLR,OVC,0.00,WeatherDisplay:10.37,2013-03-31 06:31:00,
2013-03-31 02:36:00,61.4,57.5,30.16,South,171,4.6,5.8,87,0.00,CLR,OVC,0.00,WeatherDisplay:10.37,2013-03-31 06:36:00,
2013-03-31 02:41:00,61.4,57.5,30.16,SSE,164,4.1,4.6,87,0.00,CLR,OVC,0.00,WeatherDisplay:10.37,2013-03-31 06:41:00,
2013-03-31 02:46:00,61.4,57.8,30.16,SSE,161,2.9,3.5,88,0.00,CLR,OVC,0.00,WeatherDisplay:10.37,2013-03-31 06:46:00,
2013-03-31 02:51:00,61.5,57.9,30.16,SSE,155,2.0,3.5,88,0.00,CLR,OVC,0.00,WeatherDisplay:10.37,2013-03-31 06:51:00,
2013-03-31 02:56:00,61.6,57.7,30.17,SE,137,2.0,2.3,87,0.00,CLR,OVC,0.00,WeatherDisplay:10.37,2013-03-31 06:56:00,
2013-03-31 03:01:00,61.7,57.8,30.16,SSE,155,1.9,2.3,87,0.00,CLR,OVC,0.00,WeatherDisplay:10.37,2013-03-31 07:01:00,
2013-03-31 03:06:00,61.7,57.8,30.16,South,169,1.1,1.5,87,0.00,CLR,OVC,0.00,WeatherDisplay:10.37,2013-03-31 07:06:00,
2013-03-31 03:11:00,61.7,57.8,30.16,SSE,165,2.8,3.5,87,0.00,CLR,OVC,0.00,WeatherDisplay:10.37,2013-03-31 07:11:00,
2013-03-31 03:16:00,61.6,57.7,30.15,SSE,158,4.0,4.6,87,0.00,CLR,OVC,0.00,WeatherDisplay:10.37,2013-03-31 07:16:00,
2013-03-31 03:21:00,61.5,57.6,30.15,SSE,158,4.9,6.9,87,0.00,CLR,OVC,0.00,WeatherDisplay:10.37,2013-03-31 07:21:00,
2013-03-31 03:26:00,61.5,57.9,30.14,South,179,4.5,5.8,88,0.00,CLR,OVC,0.00,WeatherDisplay:10.37,2013-03-31 07:26:00,
2013-03-31 03:31:00,61.5,57.9,30.14,SSE,164,4.1,5.8,88,0.00,CLR,OVC,0.00,WeatherDisplay:10.37,2013-03-31 07:31:00,
2013-03-31 03:36:00,61.6,58.0,30.14,SSE,167,4.5,4.6,88,0.00,CLR,OVC,0.00,WeatherDisplay:10.37,2013-03-31 07:36:00,
2013-03-31 03:41:00,61.5,57.9,30.14,SSE,165,4.2,4.9,88,0.00,CLR,OVC,0.00,WeatherDisplay:10.37,2013-03-31 07:41:00,
2013-03-31 03:46:00,61.6,58.0,30.14,South,169,5.1,5.8,88,0.00,CLR,OVC,0.00,WeatherDisplay:10.37,2013-03-31 07:46:00,
2013-03-31 03:51:00,61.6,58.0,30.14,SSE,161,4.6,5.8,88,0.00,CLR,OVC,0.00,WeatherDisplay:10.37,2013-03-31 07:51:00,
2013-03-31 03:56:00,61.6,58.0,30.14,SSE,167,3.7,5.8,88,0.00,CLR,OVC,0.00,WeatherDisplay:10.37,2013-03-31 07:56:00,
2013-03-31 04:02:00,61.6,57.7,30.14,SSE,151,3.2,4.6,87,0.00,CLR,OVC,0.00,WeatherDisplay:10.37,2013-03-31 08:02:00,
2013-03-31 04:07:00,61.9,58.0,30.14,SSE,161,3.0,4.6,87,0.00,CLR,OVC,0.00,WeatherDisplay:10.37,2013-03-31 08:07:00,
2013-03-31 04:12:00,61.9,58.0,30.14,South,174,2.8,4.6,87,0.00,CLR,OVC,0.00,WeatherDisplay:10.37,2013-03-31 08:12:00,
2013-03-31 04:17:00,62.0,57.8,30.14,SSE,152,4.6,5.8,86,0.00,CLR,OVC,0.00,WeatherDisplay:10.37,2013-03-31 08:17:00,
2013-03-31 04:22:00,61.9,57.7,30.14,SSE,154,4.2,5.8,86,0.00,CLR,OVC,0.00,WeatherDisplay:10.37,2013-03-31 08:22:00,
2013-03-31 04:27:00,62.0,57.8,30.14,SSE,152,4.3,5.8,86,0.00,CLR,OVC,0.00,WeatherDisplay:10.37,2013-03-31 08:27:00,
2013-03-31 04:32:00,61.9,57.7,30.13,SSE,167,2.8,4.6,86,0.00,CLR,OVC,0.00,WeatherDisplay:10.37,2013-03-31 08:32:00,
2013-03-31 04:37:00,62.2,58.0,30.13,SSE,161,2.7,3.5,86,0.00,CLR,OVC,0.00,WeatherDisplay:10.37,2013-03-31 08:37:00,
2013-03-31 04:42:00,62.1,57.9,30.13,SSE,154,4.9,6.9,86,0.00,CLR,OVC,0.00,WeatherDisplay:10.37,2013-03-31 08:42:00,
2013-03-31 04:47:00,62.2,58.0,30.13,SSE,165,4.0,5.8,86,0.00,CLR,OVC,0.00,WeatherDisplay:10.37,2013-03-31 08:47:00,
2013-03-31 04:52:00,62.1,57.5,30.13,SSE,157,3.7,4.6,85,0.00,CLR,OVC,0.00,WeatherDisplay:10.37,2013-03-31 08:52:00,
2013-03-31 04:57:00,62.0,57.4,30.13,SSE,162,4.0,6.9,85,0.00,CLR,OVC,0.00,WeatherDisplay:10.37,2013-03-31 08:57:00,
2013-03-31 05:02:00,62.0,57.4,30.13,SSE,150,3.7,4.6,85,0.00,CLR,OVC,0.00,WeatherDisplay:10.37,2013-03-31 09:02:00,
2013-03-31 05:07:00,61.9,57.3,30.13,SE,144,3.8,4.6,85,0.00,CLR,OVC,0.00,WeatherDisplay:10.37,2013-03-31 09:07:00,
2013-03-31 05:12:00,61.9,57.3,30.13,SSE,158,3.9,4.6,85,0.00,CLR,OVC,0.00,WeatherDisplay:10.37,2013-03-31 09:12:00,
2013-03-31 05:17:00,61.8,56.9,30.13,SSE,154,4.0,4.6,84,0.00,CLR,OVC,0.00,WeatherDisplay:10.37,2013-03-31 09:17:00,
2013-03-31 05:22:00,61.9,57.3,30.13,ESE,114,2.4,4.6,85,0.00,CLR,OVC,0.00,WeatherDisplay:10.37,2013-03-31 09:22:00,
2013-03-31 05:27:00,61.9,57.3,30.13,SE,138,2.9,4.6,85,0.00,CLR,OVC,0.00,WeatherDisplay:10.37,2013-03-31 09:27:00,
2013-03-31 05:32:00,62.0,57.4,30.13,SSE,152,3.7,5.8,85,0.00,CLR,OVC,0.00,WeatherDisplay:10.37,2013-03-31 09:32:00,
2013-03-31 05:37:00,61.8,57.2,30.14,SE,143,3.1,4.6,85,0.00,CLR,OVC,0.00,WeatherDisplay:10.37,2013-03-31 09:37:00,
2013-03-31 05:43:00,62.0,57.4,30.14,SSE,154,2.7,3.5,85,0.00,CLR,OVC,0.00,WeatherDisplay:10.37,2013-03-31 09:43:00,
2013-03-31 05:48:00,61.9,57.3,30.14,SSE,151,2.7,4.6,85,0.00,CLR,OVC,0.00,WeatherDisplay:10.37,2013-03-31 09:48:00,
2013-03-31 05:53:00,61.7,56.8,30.14,SE,134,3.0,4.6,84,0.00,CLR,OVC,0.00,WeatherDisplay:10.37,2013-03-31 09:53:00,
2013-03-31 05:58:00,61.6,56.7,30.14,SE,141,1.8,3.5,84,0.00,CLR,OVC,0.00,WeatherDisplay:10.37,2013-03-31 09:58:00,
2013-03-31 06:03:00,61.6,56.7,30.14,SE,130,2.1,3.5,84,0.00,CLR,OVC,0.00,WeatherDisplay:10.37,2013-03-31 10:03:00,
2013-03-31 06:08:00,61.5,56.6,30.14,SE,124,2.3,3.5,84,0.00,CLR,OVC,0.00,WeatherDisplay:10.37,2013-03-31 10:08:00,
2013-03-31 06:13:00,61.2,56.3,30.14,SSE,148,3.1,4.6,84,0.00,CLR,OVC,0.00,WeatherDisplay:10.37,2013-03-31 10:13:00,
2013-03-31 06:18:00,61.0,56.1,30.14,ESE,123,3.1,4.6,84,0.00,CLR,OVC,0.00,WeatherDisplay:10.37,2013-03-31 10:18:00,
2013-03-31 06:23:00,60.9,56.4,30.15,ESE,112,1.8,3.5,85,0.00,CLR,OVC,0.00,WeatherDisplay:10.37,2013-03-31 10:23:00,
2013-03-31 06:28:00,60.9,56.4,30.15,SE,145,2.6,4.6,85,0.00,CLR,OVC,0.00,WeatherDisplay:10.37,2013-03-31 10:28:00,
2013-03-31 06:33:00,60.9,56.0,30.15,ESE,112,2.6,3.5,84,0.00,CLR,OVC,0.00,WeatherDisplay:10.37,2013-03-31 10:33:00,
2013-03-31 06:38:00,60.7,55.8,30.15,ESE,119,1.8,3.5,84,0.00,CLR,OVC,0.00,WeatherDisplay:10.37,2013-03-31 10:38:00,
2013-03-31 06:43:00,60.6,56.1,30.16,SE,127,2.7,3.5,85,0.00,CLR,OVC,0.00,WeatherDisplay:10.37,2013-03-31 10:43:00,
2013-03-31 06:48:00,60.6,56.1,30.16,NE,35,1.4,2.3,85,0.00,CLR,OVC,0.00,WeatherDisplay:10.37,2013-03-31 10:48:00,
2013-03-31 06:53:00,60.7,56.2,30.16,ESE,109,1.9,3.5,85,0.00,CLR,OVC,0.00,WeatherDisplay:10.37,2013-03-31 10:53:00,
2013-03-31 06:58:00,60.6,56.1,30.16,East,89,3.5,4.6,85,0.00,CLR,OVC,0.00,WeatherDisplay:10.37,2013-03-31 10:58:00,
2013-03-31 07:03:00,60.4,55.9,30.16,East,82,2.4,3.5,85,0.00,CLR,OVC,0.00,WeatherDisplay:10.37,2013-03-31 11:03:00,
2013-03-31 07:08:00,60.4,55.9,30.16,SE,126,3.5,4.6,85,0.00,CLR,OVC,0.00,WeatherDisplay:10.37,2013-03-31 11:08:00,
2013-03-31 07:13:00,60.2,55.7,30.16,SE,145,2.6,3.5,85,0.00,CLR,OVC,0.00,WeatherDisplay:10.37,2013-03-31 11:13:00,
2013-03-31 07:18:00,60.1,55.6,30.17,SE,134,2.6,3.5,85,0.00,CLR,OVC,0.00,WeatherDisplay:10.37,2013-03-31 11:18:00,
2013-03-31 07:23:00,60.2,56.0,30.17,ESE,121,2.5,4.6,86,0.00,CLR,OVC,0.00,WeatherDisplay:10.37,2013-03-31 11:23:00,
2013-03-31 07:28:00,60.2,56.0,30.17,ESE,112,2.3,3.5,86,0.00,CLR,OVC,0.00,WeatherDisplay:10.37,2013-03-31 11:28:00,
2013-03-31 07:33:00,60.3,55.8,30.17,SE,127,2.4,3.5,85,0.00,CLR,OVC,0.00,WeatherDisplay:10.37,2013-03-31 11:33:00,
2013-03-31 07:38:00,60.3,55.8,30.17,ESE,113,1.4,4.6,85,0.00,CLR,OVC,0.00,WeatherDisplay:10.37,2013-03-31 11:38:00,
2013-03-31 07:43:00,60.3,55.8,30.17,ENE,62,1.7,3.5,85,0.00,CLR,OVC,0.00,WeatherDisplay:10.37,2013-03-31 11:43:00,
2013-03-31 07:48:00,60.3,55.8,30.17,NE,47,1.7,4.6,85,0.00,CLR,OVC,0.00,WeatherDisplay:10.37,2013-03-31 11:48:00,
2013-03-31 07:53:00,60.3,55.8,30.18,East,88,1.4,2.3,85,0.00,CLR,OVC,0.00,WeatherDisplay:10.37,2013-03-31 11:53:00,
2013-03-31 07:58:00,60.4,55.9,30.18,NE,55,0.0,1.1,85,0.00,CLR,OVC,0.00,WeatherDisplay:10.37,2013-03-31 11:58:00,
2013-03-31 08:03:00,60.4,55.9,30.18,East,97,2.7,3.5,85,0.00,CLR,OVC,0.00,WeatherDisplay:10.37,2013-03-31 12:03:00,
2013-03-31 08:08:00,60.5,56.0,30.17,SE,126,3.0,4.6,85,0.00,CLR,OVC,0.00,WeatherDisplay:10.37,2013-03-31 12:08:00,
2013-03-31 08:13:00,60.5,56.3,30.17,East,89,2.5,4.6,86,0.00,CLR,OVC,0.00,WeatherDisplay:10.37,2013-03-31 12:13:00,
2013-03-31 08:18:00,60.5,56.3,30.17,East,93,1.0,3.5,86,0.00,CLR,OVC,0.00,WeatherDisplay:10.37,2013-03-31 12:18:00,
2013-03-31 08:23:00,61.0,56.8,30.17,East,90,1.8,2.3,86,0.00,CLR,OVC,0.00,WeatherDisplay:10.37,2013-03-31 12:23:00,
2013-03-31 08:28:00,61.2,57.0,30.17,ENE,62,2.1,2.3,86,0.00,CLR,OVC,0.00,WeatherDisplay:10.37,2013-03-31 12:28:00,
2013-03-31 08:33:00,61.4,56.8,30.18,East,90,1.6,3.5,85,0.00,CLR,OVC,0.00,WeatherDisplay:10.37,2013-03-31 12:33:00,
2013-03-31 08:38:00,61.8,56.9,30.18,SE,140,1.5,3.5,84,0.00,CLR,OVC,0.00,WeatherDisplay:10.37,2013-03-31 12:38:00,
2013-03-31 08:43:00,62.1,57.2,30.18,SE,136,1.4,5.1,84,0.00,CLR,OVC,0.00,WeatherDisplay:10.37,2013-03-31 12:43:00,
2013-03-31 08:48:00,62.4,57.5,30.18,SE,145,3.2,4.7,84,0.00,CLR,OVC,0.00,WeatherDisplay:10.37,2013-03-31 12:48:00,
2013-03-31 08:53:00,62.8,57.6,30.18,ESE,121,2.9,5.8,83,0.00,CLR,OVC,0.00,WeatherDisplay:10.37,2013-03-31 12:53:00,
2013-03-31 08:58:00,63.2,57.9,30.18,SSE,148,5.6,8.1,83,0.00,CLR,OVC,0.00,WeatherDisplay:10.37,2013-03-31 12:58:00,
2013-03-31 09:03:00,63.5,57.9,30.18,SSE,152,7.0,9.2,82,0.00,CLR,OVC,0.00,WeatherDisplay:10.37,2013-03-31 13:03:00,
2013-03-31 09:08:00,64.0,58.1,30.18,South,174,6.8,6.9,81,0.00,CLR,OVC,0.00,WeatherDisplay:10.37,2013-03-31 13:08:00,
2013-03-31 09:13:00,64.5,58.5,30.18,South,172,6.1,8.1,81,0.00,CLR,OVC,0.00,WeatherDisplay:10.37,2013-03-31 13:13:00,
2013-03-31 09:18:00,65.0,58.7,30.18,SSE,148,8.6,9.6,80,0.00,CLR,OVC,0.00,WeatherDisplay:10.37,2013-03-31 13:18:00,
2013-03-31 09:23:00,65.6,58.6,30.18,SSE,162,7.8,11.1,78,0.00,CLR,OVC,0.00,WeatherDisplay:10.37,2013-03-31 13:23:00,
2013-03-31 09:28:00,66.1,58.7,30.18,SE,137,8.6,9.8,77,0.00,CLR,OVC,0.00,WeatherDisplay:10.37,2013-03-31 13:28:00,
2013-03-31 09:33:00,66.9,59.5,30.18,SSE,162,8.5,10.4,77,0.00,CLR,OVC,0.00,WeatherDisplay:10.37,2013-03-31 13:33:00,
2013-03-31 09:38:00,67.2,58.6,30.18,South,188,7.8,12.7,74,0.00,CLR,OVC,0.00,WeatherDisplay:10.37,2013-03-31 13:38:00,
2013-03-31 09:43:00,67.6,58.6,30.18,South,178,7.4,12.7,73,0.00,CLR,OVC,0.00,WeatherDisplay:10.37,2013-03-31 13:43:00,
2013-03-31 09:48:00,68.0,58.6,30.18,South,172,9.2,11.5,72,0.00,CLR,OVC,0.00,WeatherDisplay:10.37,2013-03-31 13:48:00,
2013-03-31 09:54:00,68.5,59.1,30.18,SSW,202,6.3,6.9,72,0.00,CLR,OVC,0.00,WeatherDisplay:10.37,2013-03-31 13:54:00,
2013-03-31 09:59:00,69.1,59.3,30.18,SSE,155,7.1,10.4,71,0.00,CLR,OVC,0.00,WeatherDisplay:10.37,2013-03-31 13:59:00,
2013-03-31 10:04:00,69.4,59.2,30.18,SSE,162,10.5,13.8,70,0.00,CLR,OVC,0.00,WeatherDisplay:10.37,2013-03-31 14:04:00,
2013-03-31 10:09:00,70.0,58.5,30.19,South,186,9.5,16.1,67,0.00,CLR,OVC,0.00,WeatherDisplay:10.37,2013-03-31 14:09:00,
2013-03-31 10:14:00,70.7,59.2,30.18,SSE,167,9.7,12.7,67,0.00,CLR,OVC,0.00,WeatherDisplay:10.37,2013-03-31 14:14:00,
2013-03-31 10:19:00,70.9,59.0,30.18,SSE,158,9.2,12.7,66,0.00,CLR,OVC,0.00,WeatherDisplay:10.37,2013-03-31 14:19:00,
2013-03-31 10:24:00,71.5,58.7,30.18,SSW,199,8.9,12.7,64,0.00,CLR,OVC,0.00,WeatherDisplay:10.37,2013-03-31 14:24:00,
2013-03-31 10:29:00,71.5,59.1,30.18,South,174,9.5,15.0,65,0.00,CLR,OVC,0.00,WeatherDisplay:10.37,2013-03-31 14:29:00,
2013-03-31 10:34:00,71.9,59.1,30.19,South,169,11.0,16.1,64,0.00,CLR,OVC,0.00,WeatherDisplay:10.37,2013-03-31 14:34:00,
2013-03-31 10:39:00,72.1,59.2,30.19,SSW,209,8.3,12.7,64,0.00,CLR,OVC,0.00,WeatherDisplay:10.37,2013-03-31 14:39:00,
2013-03-31 10:44:00,72.2,58.9,30.18,South,181,11.8,15.0,63,0.00,CLR,OVC,0.00,WeatherDisplay:10.37,2013-03-31 14:44:00,
2013-03-31 10:49:00,72.2,58.0,30.18,South,179,11.6,15.0,61,0.00,CLR,OVC,0.00,WeatherDisplay:10.37,2013-03-31 14:49:00,
2013-03-31 10:54:00,72.6,58.4,30.18,SSE,168,7.3,10.9,61,0.00,CLR,OVC,0.00,WeatherDisplay:10.37,2013-03-31 14:54:00,
2013-03-31 10:59:00,72.9,57.7,30.19,South,174,9.1,11.5,59,0.00,CLR,OVC,0.00,WeatherDisplay:10.37,2013-03-31 14:59:00,
2013-03-31 11:04:00,73.3,58.1,30.18,SSE,158,8.3,10.4,59,0.00,CLR,OVC,0.00,WeatherDisplay:10.37,2013-03-31 15:04:00,
2013-03-31 11:09:00,73.8,59.5,30.18,South,169,6.8,10.9,61,0.00,CLR,OVC,0.00,WeatherDisplay:10.37,2013-03-31 15:09:00,
2013-03-31 11:14:00,73.8,58.6,30.18,South,186,10.5,12.7,59,0.00,CLR,OVC,0.00,WeatherDisplay:10.37,2013-03-31 15:14:00,
2013-03-31 11:19:00,74.0,58.8,30.18,SSE,161,10.0,12.7,59,0.00,CLR,OVC,0.00,WeatherDisplay:10.37,2013-03-31 15:19:00,
2013-03-31 11:24:00,74.3,58.6,30.18,South,176,8.6,11.5,58,0.00,CLR,OVC,0.00,WeatherDisplay:10.37,2013-03-31 15:24:00,
2013-03-31 11:29:00,74.9,58.1,30.18,SSW,202,10.8,15.4,56,0.00,CLR,OVC,0.00,WeatherDisplay:10.37,2013-03-31 15:29:00,
2013-03-31 11:34:00,74.8,58.1,30.18,South,184,11.5,14.9,56,0.00,CLR,OVC,0.00,WeatherDisplay:10.37,2013-03-31 15:34:00,
2013-03-31 11:39:00,75.3,58.0,30.18,SSW,192,8.5,10.4,55,0.00,CLR,OVC,0.00,WeatherDisplay:10.37,2013-03-31 15:39:00,
2013-03-31 11:44:00,75.4,57.1,30.18,SSE,162,10.9,13.8,53,0.00,CLR,OVC,0.00,WeatherDisplay:10.37,2013-03-31 15:44:00,
2013-03-31 11:49:00,75.8,58.0,30.17,SSE,160,9.8,13.8,54,0.00,CLR,OVC,0.00,WeatherDisplay:10.37,2013-03-31 15:49:00,
2013-03-31 11:54:00,76.1,57.2,30.17,SW,216,10.6,16.1,52,0.00,CLR,OVC,0.00,WeatherDisplay:10.37,2013-03-31 15:54:00,
2013-03-31 11:59:00,76.3,56.8,30.17,SSW,193,10.8,17.3,51,0.00,CLR,OVC,0.00,WeatherDisplay:10.37,2013-03-31 15:59:00,
2013-03-31 12:04:00,76.2,56.2,30.17,SSW,195,10.6,18.4,50,0.00,CLR,OVC,0.00,WeatherDisplay:10.37,2013-03-31 16:04:00,
2013-03-31 12:09:00,75.8,55.3,30.17,SW,230,6.6,13.8,49,0.00,CLR,OVC,0.00,WeatherDisplay:10.37,2013-03-31 16:09:00,
2013-03-31 12:14:00,75.8,55.8,30.17,SW,219,7.0,16.1,50,0.00,CLR,OVC,0.00,WeatherDisplay:10.37,2013-03-31 16:14:00,
2013-03-31 12:19:00,75.9,55.9,30.17,South,185,7.3,16.1,50,0.00,CLR,OVC,0.00,WeatherDisplay:10.37,2013-03-31 16:19:00,
2013-03-31 12:24:00,76.3,57.9,30.17,SSW,205,13.0,17.3,53,0.00,CLR,OVC,0.00,WeatherDisplay:10.37,2013-03-31 16:24:00,
2013-03-31 12:29:00,76.2,56.2,30.17,SSW,200,11.5,12.7,50,0.00,CLR,OVC,0.00,WeatherDisplay:10.37,2013-03-31 16:29:00,
2013-03-31 12:34:00,76.5,58.1,30.17,South,185,7.9,12.7,53,0.00,CLR,OVC,0.00,WeatherDisplay:10.37,2013-03-31 16:34:00,
2013-03-31 12:39:00,76.7,56.7,30.17,SSW,205,9.8,15.0,50,0.00,CLR,OVC,0.00,WeatherDisplay:10.37,2013-03-31 16:39:00,
2013-03-31 12:44:00,76.5,58.1,30.17,SSE,161,7.2,15.0,53,0.00,CLR,OVC,0.00,WeatherDisplay:10.37,2013-03-31 16:44:00,
2013-03-31 12:49:00,76.9,55.1,30.17,South,182,10.1,18.4,47,0.00,CLR,OVC,0.00,WeatherDisplay:10.37,2013-03-31 16:49:00,
2013-03-31 12:54:00,77.5,56.8,30.17,SSE,167,14.4,16.1,49,0.00,CLR,OVC,0.00,WeatherDisplay:10.37,2013-03-31 16:54:00,
2013-03-31 12:59:00,78.1,58.5,30.17,South,191,12.2,17.3,51,0.00,CLR,OVC,0.00,WeatherDisplay:10.37,2013-03-31 16:59:00,
2013-03-31 13:04:00,78.8,58.6,30.16,SSE,158,11.0,13.8,50,0.00,CLR,OVC,0.00,WeatherDisplay:10.37,2013-03-31 17:04:00,
2013-03-31 13:09:00,78.3,58.7,30.16,South,182,12.9,18.4,51,0.00,CLR,OVC,0.00,WeatherDisplay:10.37,2013-03-31 17:09:00,
2013-03-31 13:14:00,78.7,59.0,30.16,SSE,164,11.4,17.3,51,0.00,CLR,OVC,0.00,WeatherDisplay:10.37,2013-03-31 17:14:00,
2013-03-31 13:19:00,78.8,59.1,30.15,SSW,196,9.5,13.8,51,0.00,CLR,OVC,0.00,WeatherDisplay:10.37,2013-03-31 17:19:00,
2013-03-31 13:24:00,79.1,56.5,30.15,SSE,162,12.4,18.4,46,0.00,CLR,OVC,0.00,WeatherDisplay:10.37,2013-03-31 17:24:00,
2013-03-31 13:29:00,79.5,56.9,30.15,South,185,12.3,17.3,46,0.00,CLR,OVC,0.00,WeatherDisplay:10.37,2013-03-31 17:29:00,
2013-03-31 13:34:00,78.9,57.0,30.14,SE,133,12.8,17.3,47,0.00,CLR,OVC,0.00,WeatherDisplay:10.37,2013-03-31 17:34:00,
2013-03-31 13:39:00,78.4,58.8,30.14,SW,216,10.9,10.9,51,0.00,CLR,OVC,0.00,WeatherDisplay:10.37,2013-03-31 17:39:00,
2013-03-31 13:44:00,77.8,58.2,30.14,South,179,10.2,17.3,51,0.00,CLR,OVC,0.00,WeatherDisplay:10.37,2013-03-31 17:44:00,
2013-03-31 13:49:00,77.2,58.2,30.14,South,184,11.8,15.0,52,0.00,CLR,OVC,0.00,WeatherDisplay:10.37,2013-03-31 17:49:00,
2013-03-31 13:54:00,76.5,58.6,30.14,SSE,165,9.8,16.1,54,0.00,CLR,OVC,0.00,WeatherDisplay:10.37,2013-03-31 17:54:00,
2013-03-31 13:59:00,75.9,58.6,30.14,South,188,11.1,13.2,55,0.00,CLR,OVC,0.00,WeatherDisplay:10.37,2013-03-31 17:59:00,
2013-03-31 14:04:00,75.7,58.4,30.14,South,182,10.4,15.0,55,0.00,CLR,OVC,0.00,WeatherDisplay:10.37,2013-03-31 18:04:00,
2013-03-31 14:10:00,76.2,58.9,30.14,South,182,7.7,10.4,55,0.00,CLR,OVC,0.00,WeatherDisplay:10.37,2013-03-31 18:10:00,
2013-03-31 14:15:00,76.4,58.5,30.13,SSW,205,8.0,11.5,54,0.00,CLR,OVC,0.00,WeatherDisplay:10.37,2013-03-31 18:15:00,
2013-03-31 14:20:00,76.5,58.6,30.13,SSW,206,10.4,19.6,54,0.00,CLR,OVC,0.00,WeatherDisplay:10.37,2013-03-31 18:20:00,
2013-03-31 14:25:00,76.5,58.6,30.12,SSW,209,8.9,12.7,54,0.00,CLR,OVC,0.00,WeatherDisplay:10.37,2013-03-31 18:25:00,
2013-03-31 14:30:00,77.2,58.2,30.12,SW,222,6.6,12.7,52,0.00,CLR,OVC,0.00,WeatherDisplay:10.37,2013-03-31 18:30:00,
2013-03-31 14:35:00,77.7,59.7,30.12,South,175,11.8,15.0,54,0.00,CLR,OVC,0.00,WeatherDisplay:10.37,2013-03-31 18:35:00,
2013-03-31 14:40:00,78.0,58.9,30.11,South,169,8.7,10.4,52,0.00,CLR,OVC,0.00,WeatherDisplay:10.37,2013-03-31 18:40:00,
2013-03-31 14:45:00,79.2,59.0,30.11,SSW,199,11.1,13.8,50,0.00,CLR,OVC,0.00,WeatherDisplay:10.37,2013-03-31 18:45:00,
2013-03-31 14:50:00,78.8,58.6,30.11,SW,215,9.8,16.1,50,0.00,CLR,OVC,0.00,WeatherDisplay:10.37,2013-03-31 18:50:00,
2013-03-31 14:55:00,79.0,58.8,30.10,South,179,7.8,11.5,50,0.00,CLR,OVC,0.00,WeatherDisplay:10.37,2013-03-31 18:55:00,
2013-03-31 15:00:00,77.9,58.9,30.10,SSW,205,6.6,11.6,52,0.00,CLR,OVC,0.00,WeatherDisplay:10.37,2013-03-31 19:00:00,
2013-03-31 15:05:00,76.9,57.9,30.09,SW,219,11.4,15.0,52,0.00,CLR,OVC,0.00,WeatherDisplay:10.37,2013-03-31 19:05:00,
2013-03-31 15:10:00,77.1,58.1,30.09,South,179,13.0,17.3,52,0.00,CLR,OVC,0.00,WeatherDisplay:10.37,2013-03-31 19:10:00,
2013-03-31 15:15:00,76.9,57.9,30.10,South,184,10.0,19.0,52,0.00,CLR,OVC,0.00,WeatherDisplay:10.37,2013-03-31 19:15:00,
2013-03-31 15:20:00,77.0,59.1,30.10,SSW,202,7.8,9.2,54,0.00,CLR,OVC,0.00,WeatherDisplay:10.37,2013-03-31 19:20:00,
2013-03-31 15:25:00,76.8,58.4,30.09,South,171,8.0,11.5,53,0.00,CLR,OVC,0.00,WeatherDisplay:10.37,2013-03-31 19:25:00,
2013-03-31 15:30:00,76.2,58.9,30.09,South,172,6.0,13.8,55,0.00,CLR,OVC,0.00,WeatherDisplay:10.37,2013-03-31 19:30:00,
2013-03-31 15:35:00,76.8,58.9,30.09,SSW,205,7.0,9.2,54,0.00,CLR,OVC,0.00,WeatherDisplay:10.37,2013-03-31 19:35:00,
2013-03-31 15:40:00,77.4,59.5,30.09,South,178,9.5,13.8,54,0.00,CLR,OVC,0.00,WeatherDisplay:10.37,2013-03-31 19:40:00,
2013-03-31 15:45:00,77.8,59.3,30.09,SSW,200,8.8,15.0,53,0.00,CLR,OVC,0.00,WeatherDisplay:10.37,2013-03-31 19:45:00,
2013-03-31 15:50:00,78.0,59.5,30.08,SSW,213,9.2,17.4,53,0.00,CLR,OVC,0.00,WeatherDisplay:10.37,2013-03-31 19:50:00,
2013-03-31 15:55:00,77.9,58.9,30.08,South,191,11.4,16.1,52,0.00,CLR,OVC,0.00,WeatherDisplay:10.37,2013-03-31 19:55:00,
2013-03-31 16:00:00,78.3,59.2,30.08,SSW,192,9.4,13.8,52,0.00,CLR,OVC,0.00,WeatherDisplay:10.37,2013-03-31 20:00:00,
2013-03-31 16:05:00,78.8,59.7,30.08,SSW,200,6.2,9.2,52,0.00,CLR,OVC,0.00,WeatherDisplay:10.37,2013-03-31 20:05:00,
2013-03-31 16:10:00,77.9,58.9,30.08,South,184,8.6,10.4,52,0.00,CLR,OVC,0.00,WeatherDisplay:10.37,2013-03-31 20:10:00,
2013-03-31 16:15:00,77.8,59.3,30.08,SSW,203,13.2,21.9,53,0.00,CLR,OVC,0.00,WeatherDisplay:10.37,2013-03-31 20:15:00,
2013-03-31 16:20:00,77.3,59.9,30.07,SW,217,8.8,17.3,55,0.00,CLR,OVC,0.00,WeatherDisplay:10.37,2013-03-31 20:20:00,
2013-03-31 16:25:00,76.4,59.5,30.07,SSW,203,12.6,16.1,56,0.00,CLR,OVC,0.00,WeatherDisplay:10.37,2013-03-31 20:25:00,
2013-03-31 16:30:00,75.9,59.1,30.07,South,181,11.8,17.3,56,0.00,CLR,OVC,0.00,WeatherDisplay:10.37,2013-03-31 20:30:00,
2013-03-31 16:35:00,75.9,60.1,30.07,South,188,10.0,18.0,58,0.00,CLR,OVC,0.00,WeatherDisplay:10.37,2013-03-31 20:35:00,
2013-03-31 16:40:00,76.5,60.6,30.06,SSE,161,9.1,15.0,58,0.00,CLR,OVC,0.00,WeatherDisplay:10.37,2013-03-31 20:40:00,
2013-03-31 16:45:00,77.0,59.6,30.06,SSW,200,12.2,18.4,55,0.00,CLR,OVC,0.00,WeatherDisplay:10.37,2013-03-31 20:45:00,
2013-03-31 16:50:00,76.9,60.0,30.06,South,182,14.0,20.7,56,0.00,CLR,OVC,0.00,WeatherDisplay:10.37,2013-03-31 20:50:00,
2013-03-31 16:55:00,76.7,60.3,30.06,South,183,13.0,22.0,57,0.00,CLR,OVC,0.00,WeatherDisplay:10.37,2013-03-31 20:55:00,
2013-03-31 17:00:00,76.4,60.5,30.06,South,185,13.1,20.7,58,0.00,CLR,OVC,0.00,WeatherDisplay:10.37,2013-03-31 21:00:00,
2013-03-31 17:05:00,76.3,60.4,30.06,South,172,10.6,13.8,58,0.00,CLR,OVC,0.00,WeatherDisplay:10.37,2013-03-31 21:05:00,
2013-03-31 17:10:00,76.1,60.2,30.06,SSE,167,10.3,15.0,58,0.00,CLR,OVC,0.00,WeatherDisplay:10.37,2013-03-31 21:10:00,
2013-03-31 17:15:00,75.9,60.5,30.06,South,175,13.2,19.6,59,0.00,CLR,OVC,0.00,WeatherDisplay:10.37,2013-03-31 21:15:00,
2013-03-31 17:20:00,75.8,60.9,30.06,SSE,168,13.1,19.6,60,0.00,CLR,OVC,0.00,WeatherDisplay:10.37,2013-03-31 21:20:00,
2013-03-31 17:25:00,76.4,61.0,30.06,South,169,14.2,19.6,59,0.00,CLR,OVC,0.00,WeatherDisplay:10.37,2013-03-31 21:25:00,
2013-03-31 17:30:00,76.2,61.3,30.06,South,185,9.6,12.7,60,0.00,CLR,OVC,0.00,WeatherDisplay:10.37,2013-03-31 21:30:00,
2013-03-31 17:35:00,76.0,61.6,30.06,South,189,13.3,18.4,61,0.00,CLR,OVC,0.00,WeatherDisplay:10.37,2013-03-31 21:35:00,
2013-03-31 17:40:00,76.4,61.5,30.06,SW,216,8.7,16.1,60,0.00,CLR,OVC,0.00,WeatherDisplay:10.37,2013-03-31 21:40:00,
2013-03-31 17:45:00,76.6,61.7,30.06,SSW,205,8.4,12.7,60,0.00,CLR,OVC,0.00,WeatherDisplay:10.37,2013-03-31 21:45:00,
2013-03-31 17:50:00,76.4,62.0,30.06,South,186,13.9,20.7,61,0.00,CLR,OVC,0.00,WeatherDisplay:10.37,2013-03-31 21:50:00,
2013-03-31 17:55:00,77.3,61.9,30.06,SSW,209,12.9,18.4,59,0.00,CLR,OVC,0.00,WeatherDisplay:10.37,2013-03-31 21:55:00,
2013-03-31 18:00:00,76.6,62.1,30.06,South,185,14.1,19.6,61,0.00,CLR,OVC,0.00,WeatherDisplay:10.37,2013-03-31 22:00:00,
2013-03-31 18:05:00,77.1,62.6,30.06,South,171,10.5,16.1,61,0.00,CLR,OVC,0.00,WeatherDisplay:10.37,2013-03-31 22:05:00,
2013-03-31 18:10:00,76.9,61.5,30.06,SSW,200,12.2,18.4,59,0.00,CLR,OVC,0.00,WeatherDisplay:10.37,2013-03-31 22:10:00,
2013-03-31 18:15:00,77.4,61.9,30.05,South,171,11.1,17.3,59,0.00,CLR,OVC,0.00,WeatherDisplay:10.37,2013-03-31 22:15:00,
2013-03-31 18:20:00,77.3,61.4,30.05,South,184,12.9,18.4,58,0.00,CLR,OVC,0.00,WeatherDisplay:10.37,2013-03-31 22:20:00,
2013-03-31 18:25:00,76.3,61.4,30.05,SSE,164,14.1,21.9,60,0.00,CLR,OVC,0.00,WeatherDisplay:10.37,2013-03-31 22:25:00,
2013-03-31 18:30:00,75.5,61.6,30.05,South,174,9.0,16.1,62,0.00,CLR,OVC,0.00,WeatherDisplay:10.37,2013-03-31 22:30:00,
2013-03-31 18:35:00,75.6,61.7,30.05,South,175,8.3,10.4,62,0.00,CLR,OVC,0.00,WeatherDisplay:10.37,2013-03-31 22:35:00,
2013-03-31 18:40:00,75.3,61.4,30.06,SW,229,9.0,12.7,62,0.00,CLR,OVC,0.00,WeatherDisplay:10.37,2013-03-31 22:40:00,
2013-03-31 18:45:00,75.2,60.8,30.06,WSW,239,7.9,10.4,61,0.00,CLR,OVC,0.00,WeatherDisplay:10.37,2013-03-31 22:45:00,
2013-03-31 18:50:00,75.3,60.9,30.06,SSW,206,9.9,11.9,61,0.00,CLR,OVC,0.00,WeatherDisplay:10.37,2013-03-31 22:50:00,
2013-03-31 18:55:00,75.1,61.2,30.06,SSW,196,7.0,14.0,62,0.00,CLR,OVC,0.00,WeatherDisplay:10.37,2013-03-31 22:55:00,
2013-03-31 19:00:00,74.9,61.5,30.06,SSW,210,8.4,12.7,63,0.00,CLR,OVC,0.00,WeatherDisplay:10.37,2013-03-31 23:00:00,
2013-03-31 19:05:00,74.5,61.5,30.06,SSW,200,9.6,16.1,64,0.00,CLR,OVC,0.00,WeatherDisplay:10.37,2013-03-31 23:05:00,
2013-03-31 19:10:00,73.8,61.3,30.06,WSW,239,7.6,11.5,65,0.00,CLR,OVC,0.00,WeatherDisplay:10.37,2013-03-31 23:10:00,
2013-03-31 19:15:00,73.5,61.4,30.06,SSW,208,5.7,8.1,66,0.00,CLR,OVC,0.00,WeatherDisplay:10.37,2013-03-31 23:15:00,
2013-03-31 19:20:00,72.9,61.3,30.06,SSE,154,6.8,9.2,67,0.00,CLR,OVC,0.00,WeatherDisplay:10.37,2013-03-31 23:20:00,
2013-03-31 19:25:00,72.5,61.3,30.06,South,181,8.3,11.5,68,0.00,CLR,OVC,0.00,WeatherDisplay:10.37,2013-03-31 23:25:00,
2013-03-31 19:30:00,72.1,61.4,30.06,SW,216,7.9,11.5,69,0.00,CLR,OVC,0.00,WeatherDisplay:10.37,2013-03-31 23:30:00,
2013-03-31 19:35:00,71.8,61.5,30.06,SSW,196,5.7,8.1,70,0.00,CLR,OVC,0.00,WeatherDisplay:10.37,2013-03-31 23:35:00,
2013-03-31 19:40:00,71.5,61.6,30.05,South,178,7.4,10.4,71,0.00,CLR,OVC,0.00,WeatherDisplay:10.37,2013-03-31 23:40:00,
2013-03-31 19:45:00,71.5,61.6,30.05,SSW,192,6.0,14.0,71,0.00,CLR,OVC,0.00,WeatherDisplay:10.37,2013-03-31 23:45:00,
2013-03-31 19:50:00,71.3,61.8,30.05,SSE,160,8.5,12.2,72,0.00,CLR,OVC,0.00,WeatherDisplay:10.37,2013-03-31 23:50:00,
2013-03-31 19:55:00,70.9,61.8,30.05,SSE,167,9.3,12.7,73,0.00,CLR,OVC,0.00,WeatherDisplay:10.37,2013-03-31 23:55:00,
2013-03-31 20:00:00,70.7,61.6,30.05,SSW,203,11.0,15.0,73,0.00,CLR,OVC,0.00,WeatherDisplay:10.37,2013-04-01 00:00:00,
2013-03-31 20:05:00,70.5,61.8,30.04,South,172,9.9,13.8,74,0.00,CLR,OVC,0.00,WeatherDisplay:10.37,2013-04-01 00:05:00,
2013-03-31 20:10:00,70.2,61.5,30.04,South,184,10.2,13.8,74,0.00,CLR,OVC,0.00,WeatherDisplay:10.37,2013-04-01 00:10:00,
2013-03-31 20:15:00,70.4,61.7,30.04,SSE,151,7.4,10.4,74,0.00,CLR,OVC,0.00,WeatherDisplay:10.37,2013-04-01 00:15:00,
2013-03-31 20:20:00,70.3,62.0,30.04,SSW,199,5.9,9.2,75,0.00,CLR,OVC,0.00,WeatherDisplay:10.37,2013-04-01 00:20:00,
2013-03-31 20:25:00,70.2,61.9,30.04,South,182,7.0,9.2,75,0.00,CLR,OVC,0.00,WeatherDisplay:10.37,2013-04-01 00:25:00,
2013-03-31 20:30:00,70.3,62.0,30.04,South,182,5.4,9.0,75,0.00,CLR,OVC,0.00,WeatherDisplay:10.37,2013-04-01 00:30:00,
2013-03-31 20:35:00,70.2,61.9,30.04,SSW,193,6.5,9.2,75,0.00,CLR,OVC,0.00,WeatherDisplay:10.37,2013-04-01 00:35:00,
2013-03-31 20:40:00,70.0,61.3,30.04,South,176,7.3,10.4,74,0.00,CLR,OVC,0.00,WeatherDisplay:10.37,2013-04-01 00:40:00,
2013-03-31 20:45:00,70.1,61.4,30.05,South,186,6.8,9.2,74,0.00,CLR,OVC,0.00,WeatherDisplay:10.37,2013-04-01 00:45:00,
2013-03-31 20:50:00,70.0,61.3,30.04,South,188,5.9,8.1,74,0.00,CLR,OVC,0.00,WeatherDisplay:10.37,2013-04-01 00:50:00,
2013-03-31 20:55:00,69.8,61.1,30.05,SW,219,6.1,8.1,74,0.00,CLR,OVC,0.00,WeatherDisplay:10.37,2013-04-01 00:55:00,
2013-03-31 21:00:00,69.9,61.2,30.05,South,178,2.1,3.5,74,0.00,CLR,OVC,0.00,WeatherDisplay:10.37,2013-04-01 01:00:00,
2013-03-31 21:05:00,70.0,61.3,30.04,SW,224,4.2,5.8,74,0.00,CLR,OVC,0.00,WeatherDisplay:10.37,2013-04-01 01:05:00,
2013-03-31 21:10:00,70.1,61.4,30.04,South,188,3.8,5.8,74,0.00,CLR,OVC,0.00,WeatherDisplay:10.37,2013-04-01 01:10:00,
2013-03-31 21:15:00,70.1,61.4,30.04,South,185,4.8,6.9,74,0.00,CLR,OVC,0.00,WeatherDisplay:10.37,2013-04-01 01:15:00,
2013-03-31 21:20:00,70.1,61.4,30.04,South,169,2.9,5.8,74,0.00,CLR,OVC,0.00,WeatherDisplay:10.37,2013-04-01 01:20:00,
2013-03-31 21:25:00,69.9,61.2,30.04,SSW,198,4.3,5.8,74,0.00,CLR,OVC,0.00,WeatherDisplay:10.37,2013-04-01 01:25:00,
2013-03-31 21:30:00,69.9,61.2,30.04,SW,226,3.7,5.8,74,0.00,CLR,OVC,0.00,WeatherDisplay:10.37,2013-04-01 01:30:00,
2013-03-31 21:35:00,70.0,61.7,30.05,SSW,210,3.3,3.9,75,0.00,CLR,OVC,0.00,WeatherDisplay:10.37,2013-04-01 01:35:00,
2013-03-31 21:40:00,69.8,61.5,30.05,South,191,4.5,9.2,75,0.00,CLR,OVC,0.00,WeatherDisplay:10.37,2013-04-01 01:40:00,
2013-03-31 21:45:00,69.9,62.0,30.05,SSW,192,5.7,8.1,76,0.00,CLR,OVC,0.00,WeatherDisplay:10.37,2013-04-01 01:45:00,
2013-03-31 21:50:00,69.7,61.8,30.05,SSE,164,6.9,11.5,76,0.00,CLR,OVC,0.00,WeatherDisplay:10.37,2013-04-01 01:50:00,
2013-03-31 21:55:00,69.9,62.0,30.05,South,176,7.0,8.1,76,0.00,CLR,OVC,0.00,WeatherDisplay:10.37,2013-04-01 01:55:00,
2013-03-31 22:00:00,69.7,61.8,30.06,South,188,6.2,9.0,76,0.00,CLR,OVC,0.00,WeatherDisplay:10.37,2013-04-01 02:00:00,
2013-03-31 22:05:00,69.6,61.7,30.06,South,179,5.4,8.1,76,0.00,CLR,OVC,0.00,WeatherDisplay:10.37,2013-04-01 02:05:00,
2013-03-31 22:10:00,69.8,61.9,30.06,South,169,4.7,6.9,76,0.00,CLR,OVC,0.00,WeatherDisplay:10.37,2013-04-01 02:10:00,
2013-03-31 22:15:00,69.6,61.7,30.06,SSW,195,7.4,9.2,76,0.00,CLR,OVC,0.00,WeatherDisplay:10.37,2013-04-01 02:15:00,
2013-03-31 22:20:00,69.8,61.9,30.06,SSW,195,5.3,8.1,76,0.00,CLR,OVC,0.00,WeatherDisplay:10.37,2013-04-01 02:20:00,
2013-03-31 22:25:00,69.7,61.8,30.06,South,178,7.3,9.9,76,0.00,CLR,OVC,0.00,WeatherDisplay:10.37,2013-04-01 02:25:00,
2013-03-31 22:30:00,69.9,62.0,30.06,SSE,152,7.2,9.2,76,0.00,CLR,OVC,0.00,WeatherDisplay:10.37,2013-04-01 02:30:00,
2013-03-31 22:35:00,69.8,61.9,30.07,South,175,7.6,10.4,76,0.00,CLR,OVC,0.00,WeatherDisplay:10.37,2013-04-01 02:35:00,
2013-03-31 22:40:00,69.7,62.2,30.07,South,185,4.9,7.1,77,0.00,CLR,OVC,0.00,WeatherDisplay:10.37,2013-04-01 02:40:00,
2013-03-31 22:45:00,69.6,62.4,30.07,South,169,6.2,8.1,78,0.00,CLR,OVC,0.00,WeatherDisplay:10.37,2013-04-01 02:45:00,
2013-03-31 22:50:00,69.5,63.1,30.07,South,186,5.9,9.2,80,0.00,CLR,OVC,0.00,WeatherDisplay:10.37,2013-04-01 02:50:00,
2013-03-31 22:55:00,69.3,63.2,30.08,SW,219,5.4,8.9,81,0.00,CLR,OVC,0.00,WeatherDisplay:10.37,2013-04-01 02:55:00,
2013-03-31 23:00:00,69.2,63.1,30.07,SW,216,6.6,9.2,81,0.00,CLR,OVC,0.00,WeatherDisplay:10.37,2013-04-01 03:00:00,
2013-03-31 23:05:00,69.1,63.4,30.07,South,176,6.1,9.2,82,0.00,CLR,OVC,0.00,WeatherDisplay:10.37,2013-04-01 03:05:00,
2013-03-31 23:10:00,69.1,63.4,30.07,SSE,155,6.0,9.2,82,0.00,CLR,OVC,0.00,WeatherDisplay:10.37,2013-04-01 03:10:00,
2013-03-31 23:15:00,69.2,63.5,30.07,SSW,192,6.9,9.2,82,0.00,CLR,OVC,0.00,WeatherDisplay:10.37,2013-04-01 03:15:00,
2013-03-31 23:20:00,69.0,63.6,30.07,SSW,193,7.3,11.5,83,0.00,CLR,OVC,0.00,WeatherDisplay:10.37,2013-04-01 03:20:00,
2013-03-31 23:25:00,69.0,63.6,30.07,SSW,195,5.5,8.1,83,0.00,CLR,OVC,0.00,WeatherDisplay:10.37,2013-04-01 03:25:00,
2013-03-31 23:30:00,68.8,63.4,30.07,South,188,3.9,6.9,83,0.00,CLR,OVC,0.00,WeatherDisplay:10.37,2013-04-01 03:30:00,
2013-03-31 23:35:00,68.8,63.8,30.07,SW,217,5.9,5.9,84,0.00,CLR,OVC,0.00,WeatherDisplay:10.37,2013-04-01 03:35:00,
2013-03-31 23:40:00,68.5,63.5,30.07,SSW,206,5.2,9.2,84,0.00,CLR,OVC,0.00,WeatherDisplay:10.37,2013-04-01 03:40:00,
2013-03-31 23:45:00,68.6,63.6,30.07,SW,234,4.1,8.1,84,0.00,CLR,OVC,0.00,WeatherDisplay:10.37,2013-04-01 03:45:00,
2013-03-31 23:50:00,68.5,63.5,30.07,WSW,250,4.9,6.9,84,0.00,CLR,OVC,0.00,WeatherDisplay:10.37,2013-04-01 03:50:00,
2013-03-31 23:55:00,68.5,63.5,30.06,South,184,5.1,6.7,84,0.00,CLR,OVC,0.00,WeatherDisplay:10.37,2013-04-01 03:55:00,